Regional Weather Roundup
Issued by NWS Little Rock, AR

Home | Current Version | Previous Version | Text Only | Print | Product List | Glossary Off
Versions: 1 2 3 4 5 6 7 8 9 10 11 12 13 14 15 16 17 18 19 20 21 22 23 24 25 26 27 28 29 30 31 32 33 34 35 36 37 38 39 40 41 42 43 44 45 46 47 48 49 50

393
ASUS44 KLZK 050505
RWRLZK

WEATHER ROUNDUP FOR ARKANSAS
NATIONAL WEATHER SERVICE LITTLE ROCK AR
1100 PM CST THU FEB 04 2016

NOTE: "FAIR" INDICATES FEW OR NO CLOUDS BELOW 12,000 FEET WITH NO
SIGNIFICANT WEATHER AND/OR OBSTRUCTIONS TO VISIBILITY.

ARZ001-003-010-029-050600-
NORTHWEST ARKANSAS

CITY           SKY/WX    TMP DP  RH WIND       PRES   REMARKS
FAYETTEVILLE   CLEAR     22  17  81 S6        30.39R WCI  14
FORT SMITH     CLEAR     30  19  63 E3        30.42R
HARRISON       CLEAR     32  15  49 S5        30.36F WCI  27
BENTONVILLE    CLEAR     30  14  51 S5        30.37S WCI  25
ROGERS         CLEAR     32  18  56 S8        30.37S WCI  25
SILOAM SPGS    CLEAR     30  12  47 S6        30.37F WCI  24
HIGHFILL       CLEAR     31  17  56 S5        30.36S WCI  26
$$

ARZ004-005-016-050600-
NORTH CENTRAL ARKANSAS

CITY           SKY/WX    TMP DP  RH WIND       PRES   REMARKS
BATESVILLE     CLEAR     30  16  55 CALM      30.42S
FLIPPIN        CLEAR     30  14  51 CALM      30.36S
MTN HOME       CLEAR     34  15  46 SW5       30.36F WCI  30
$$

ARZ040-041-050600-
WEST CENTRAL ARKANSAS

CITY           SKY/WX    TMP DP  RH WIND       PRES   REMARKS
MENA           CLEAR     28  21  74 CALM      30.41F
MOUNT IDA      CLEAR     27  20  75 CALM      30.40S
$$

ARZ009-017-025-026-028-050600-
NORTHEAST ARKANSAS

CITY           SKY/WX    TMP DP  RH WIND       PRES   REMARKS
CORNING        FAIR      32  21  64 SW7       30.40F WCI  26
JONESBORO      CLEAR     28  23  81 CALM      30.42R
NEWPORT        CLEAR     33  23  67 S7        30.44R WCI  27
WALNUT RIDGE   CLEAR     34  18  51 W7        30.43R WCI  28
BLYTHEVILLE    CLEAR     32  26  78 SW7       30.43R WCI  26
$$

ARZ022-023-033-042-044-050600-
CENTRAL ARKANSAS

CITY           SKY/WX    TMP DP  RH WIND       PRES   REMARKS
LITTLE ROCK    CLEAR     36  21  54 SW3       30.43S
N LITTLE ROCK  CLEAR     39  18  43 W5        30.43S
JACKSONVILLE   CLEAR     27  20  75 SW1       30.41S
SEARCY         CLEAR     32  21  64 CALM      30.44S
HOT SPRINGS    CLEAR     30  20  66 CALM      30.44R
RUSSELLVILLE   CLEAR     28  21  75 CALM      30.42R
CLINTON        FAIR      25  21  86 CALM      30.43S
$$

ARZ036-050600-
EAST ARKANSAS

CITY           SKY/WX    TMP DP  RH WIND       PRES   REMARKS
WEST MEMPHIS   HAZE      33  27  78 S5        30.43R VSB 1/2 WCI  29
$$

ARZ050-053-066-070-073-050600-
SOUTHWEST ARKANSAS

CITY           SKY/WX    TMP DP  RH WIND       PRES   REMARKS
ARKADELPHIA    FAIR      27  26  96 SW3       30.46R
CAMDEN         CLEAR     27  23  86 MISG      30.46R
TEXARKANA      CLEAR     32  22  66 CALM      30.43F
EL DORADO      CLEAR     29  21  72 CALM      30.45R
DE QUEEN       CLEAR     27  24  89 CALM      30.43S
$$

ARZ056-057-069-050600-
SOUTHEAST ARKANSAS

CITY           SKY/WX    TMP DP  RH WIND       PRES   REMARKS
PINE BLUFF     CLEAR     31  22  69 S5        30.44R WCI  26
STUTTGART      CLEAR     37  23  56 S3        30.44R
MONTICELLO     CLEAR     31  22  69 CALM      30.44R

$$






USA.gov is the U.S. government's official web portal to all federal, state and local government web resources and services.